Year,Month,Day,Hour,Minute,Value (Times are PST for temperature in C)
2007,05,28,00,00,9.50
2007,05,28,00,01,9.50
2007,05,28,00,02,9.50
2007,05,28,00,03,9.50
2007,05,28,00,04,9.40
2007,05,28,00,05,9.40
2007,05,28,00,06,9.40
2007,05,28,00,07,9.40
2007,05,28,00,08,9.40
2007,05,28,00,09,9.40
2007,05,28,00,10,9.30
2007,05,28,00,11,9.30
2007,05,28,00,12,9.30
2007,05,28,00,13,9.30
2007,05,28,00,14,9.30
2007,05,28,00,15,9.30
2007,05,28,00,16,9.20
2007,05,28,00,17,9.20
2007,05,28,00,18,9.20
2007,05,28,00,19,9.20
2007,05,28,00,20,9.20
2007,05,28,00,21,9.20
2007,05,28,00,22,9.20
2007,05,28,00,23,9.20
2007,05,28,00,24,9.20
2007,05,28,00,25,9.10
2007,05,28,00,26,9.10
2007,05,28,00,27,9.10
2007,05,28,00,28,9.10
2007,05,28,00,29,9.00
2007,05,28,00,30,9.00
2007,05,28,00,31,9.00
2007,05,28,00,32,9.00
2007,05,28,00,33,9.00
2007,05,28,00,34,8.90
2007,05,28,00,35,8.90
2007,05,28,00,36,8.90
2007,05,28,00,37,8.90
2007,05,28,00,38,8.90
2007,05,28,00,39,8.90
2007,05,28,00,40,8.80
2007,05,28,00,41,8.80
2007,05,28,00,42,8.80
2007,05,28,00,43,8.80
2007,05,28,00,44,8.80
2007,05,28,00,45,8.70
2007,05,28,00,46,8.70
2007,05,28,00,47,8.70
2007,05,28,00,48,8.70
2007,05,28,00,49,8.70
2007,05,28,00,50,8.70
2007,05,28,00,51,8.60
2007,05,28,00,52,8.60
2007,05,28,00,53,8.60
2007,05,28,00,54,8.60
2007,05,28,00,55,8.60
2007,05,28,00,56,8.70
2007,05,28,00,57,8.70
2007,05,28,00,58,8.70
2007,05,28,00,59,8.70
2007,05,28,01,00,8.70
2007,05,28,01,01,8.70
2007,05,28,01,02,8.70
2007,05,28,01,03,8.70
2007,05,28,01,04,8.70
2007,05,28,01,05,8.70
2007,05,28,01,06,8.70
2007,05,28,01,07,8.70
2007,05,28,01,08,8.60
2007,05,28,01,09,8.60
2007,05,28,01,10,8.60
2007,05,28,01,11,8.60
2007,05,28,01,12,8.60
2007,05,28,01,13,8.60
2007,05,28,01,14,8.50
2007,05,28,01,15,8.50
2007,05,28,01,16,8.50
2007,05,28,01,17,8.40
2007,05,28,01,18,8.40
2007,05,28,01,19,8.40
2007,05,28,01,20,8.40
2007,05,28,01,21,8.30
2007,05,28,01,22,8.30
2007,05,28,01,23,8.30
2007,05,28,01,24,8.30
2007,05,28,01,25,8.20
2007,05,28,01,26,8.20
2007,05,28,01,27,8.20
2007,05,28,01,28,8.20
2007,05,28,01,29,8.20
2007,05,28,01,30,8.20
2007,05,28,01,31,8.20
2007,05,28,01,32,8.20
2007,05,28,01,33,8.10
2007,05,28,01,34,8.10
2007,05,28,01,35,8.10
2007,05,28,01,36,8.10
2007,05,28,01,37,8.10
2007,05,28,01,38,8.00
2007,05,28,01,39,8.00
2007,05,28,01,40,8.00
2007,05,28,01,41,8.00
2007,05,28,01,42,7.90
2007,05,28,01,43,7.90
2007,05,28,01,44,7.90
2007,05,28,01,45,7.80
2007,05,28,01,46,7.80
2007,05,28,01,47,7.80
2007,05,28,01,48,7.80
2007,05,28,01,49,7.80
2007,05,28,01,50,7.80
2007,05,28,01,51,7.80
2007,05,28,01,52,7.70
2007,05,28,01,53,7.70
2007,05,28,01,54,7.70
2007,05,28,01,55,7.70
2007,05,28,01,56,7.70
2007,05,28,01,57,7.70
2007,05,28,01,58,7.60
2007,05,28,01,59,7.60
2007,05,28,02,00,7.60
2007,05,28,02,01,7.60
2007,05,28,02,02,7.60
2007,05,28,02,03,7.50
2007,05,28,02,04,7.50
2007,05,28,02,05,7.50
2007,05,28,02,06,7.50
2007,05,28,02,07,7.50
2007,05,28,02,08,7.40
2007,05,28,02,09,7.40
2007,05,28,02,10,7.40
2007,05,28,02,11,7.40
2007,05,28,02,12,7.40
2007,05,28,02,13,7.30
2007,05,28,02,14,7.30
2007,05,28,02,15,7.30
2007,05,28,02,16,7.30
2007,05,28,02,17,7.30
2007,05,28,02,18,7.30
2007,05,28,02,19,7.30
2007,05,28,02,20,7.30
2007,05,28,02,21,7.30
2007,05,28,02,22,7.30
2007,05,28,02,23,7.30
2007,05,28,02,24,7.30
2007,05,28,02,25,7.30
2007,05,28,02,26,7.30
2007,05,28,02,27,7.20
2007,05,28,02,28,7.20
2007,05,28,02,29,7.20
2007,05,28,02,30,7.20
2007,05,28,02,31,7.20
2007,05,28,02,32,7.20
2007,05,28,02,33,7.20
2007,05,28,02,34,7.10
2007,05,28,02,35,7.10
2007,05,28,02,36,7.10
2007,05,28,02,37,7.10
2007,05,28,02,38,7.10
2007,05,28,02,39,7.10
2007,05,28,02,40,7.00
2007,05,28,02,41,7.00
2007,05,28,02,42,7.00
2007,05,28,02,43,7.00
2007,05,28,02,44,7.00
2007,05,28,02,45,7.00
2007,05,28,02,46,7.00
2007,05,28,02,47,7.00
2007,05,28,02,48,7.00
2007,05,28,02,49,7.00
2007,05,28,02,50,7.00
2007,05,28,02,51,7.00
2007,05,28,02,52,7.00
2007,05,28,02,53,7.00
2007,05,28,02,54,7.00
2007,05,28,02,55,7.00
2007,05,28,02,56,7.00
2007,05,28,02,57,7.00
2007,05,28,02,58,7.00
2007,05,28,02,59,7.00
2007,05,28,03,00,7.00
2007,05,28,03,01,7.00
2007,05,28,03,02,7.00
2007,05,28,03,03,7.00
2007,05,28,03,04,7.00
2007,05,28,03,05,7.00
2007,05,28,03,06,6.90
2007,05,28,03,07,6.90
2007,05,28,03,08,6.90
2007,05,28,03,09,6.90
2007,05,28,03,10,6.90
2007,05,28,03,11,6.90
2007,05,28,03,12,6.90
2007,05,28,03,13,6.80
2007,05,28,03,14,6.80
2007,05,28,03,15,6.80
2007,05,28,03,16,6.80
2007,05,28,03,17,6.80
2007,05,28,03,18,6.80
2007,05,28,03,19,6.80
2007,05,28,03,20,6.80
2007,05,28,03,21,6.80
2007,05,28,03,22,6.80
2007,05,28,03,23,6.80
2007,05,28,03,24,6.80
2007,05,28,03,25,6.80
2007,05,28,03,26,6.80
2007,05,28,03,27,6.80
2007,05,28,03,28,6.80
2007,05,28,03,29,6.80
2007,05,28,03,30,6.80
2007,05,28,03,31,6.80
2007,05,28,03,32,6.80
2007,05,28,03,33,6.80
2007,05,28,03,34,6.80
2007,05,28,03,35,6.80
2007,05,28,03,36,6.80
2007,05,28,03,37,6.80
2007,05,28,03,38,6.80
2007,05,28,03,39,6.80
2007,05,28,03,40,6.80
2007,05,28,03,41,6.80
2007,05,28,03,42,6.80
2007,05,28,03,43,6.80
2007,05,28,03,44,6.80
2007,05,28,03,45,6.80
2007,05,28,03,46,6.80
2007,05,28,03,47,6.80
2007,05,28,03,48,6.80
2007,05,28,03,49,6.80
2007,05,28,03,50,6.70
2007,05,28,03,51,6.70
2007,05,28,03,52,6.70
2007,05,28,03,53,6.70
2007,05,28,03,54,6.70
2007,05,28,03,55,6.70
2007,05,28,03,56,6.70
2007,05,28,03,57,6.70
2007,05,28,03,58,6.70
2007,05,28,03,59,6.70
2007,05,28,04,00,6.60
2007,05,28,04,01,6.60
2007,05,28,04,02,6.60
2007,05,28,04,03,6.60
2007,05,28,04,04,6.60
2007,05,28,04,05,6.60
2007,05,28,04,06,6.60
2007,05,28,04,07,6.60
2007,05,28,04,08,6.60
2007,05,28,04,09,6.60
2007,05,28,04,10,6.60
2007,05,28,04,11,6.60
2007,05,28,04,12,6.60
2007,05,28,04,13,6.60
2007,05,28,04,14,6.60
2007,05,28,04,15,6.60
2007,05,28,04,16,6.60
2007,05,28,04,17,6.60
2007,05,28,04,18,6.60
2007,05,28,04,19,6.60
2007,05,28,04,20,6.60
2007,05,28,04,21,6.60
2007,05,28,04,22,6.60
2007,05,28,04,23,6.60
2007,05,28,04,24,6.60
2007,05,28,04,25,6.60
2007,05,28,04,26,6.50
2007,05,28,04,27,6.40
2007,05,28,04,28,6.40
2007,05,28,04,29,6.40
2007,05,28,04,30,6.40
2007,05,28,04,31,6.40
2007,05,28,04,32,6.40
2007,05,28,04,33,6.40
2007,05,28,04,34,6.40
2007,05,28,04,35,6.40
2007,05,28,04,36,6.40
2007,05,28,04,37,6.40
2007,05,28,04,38,6.40
2007,05,28,04,39,6.40
2007,05,28,04,40,6.40
2007,05,28,04,41,6.40
2007,05,28,04,42,6.40
2007,05,28,04,43,6.40
2007,05,28,04,44,6.40
2007,05,28,04,45,6.40
2007,05,28,04,46,6.40
2007,05,28,04,47,6.40
2007,05,28,04,48,6.40
2007,05,28,04,49,6.40
2007,05,28,04,50,6.40
2007,05,28,04,51,6.40
2007,05,28,04,52,6.40
2007,05,28,04,53,6.40
2007,05,28,04,54,6.40
2007,05,28,04,55,6.30
2007,05,28,04,56,6.30
2007,05,28,04,57,6.30
2007,05,28,04,58,6.30
2007,05,28,04,59,6.30
2007,05,28,05,00,6.30
2007,05,28,05,01,6.40
2007,05,28,05,02,6.30
2007,05,28,05,03,6.30
2007,05,28,05,04,6.30
2007,05,28,05,05,6.30
2007,05,28,05,06,6.30
2007,05,28,05,07,6.30
2007,05,28,05,08,6.30
2007,05,28,05,09,6.30
2007,05,28,05,10,6.30
2007,05,28,05,11,6.30
2007,05,28,05,12,6.30
2007,05,28,05,13,6.30
2007,05,28,05,14,6.30
2007,05,28,05,15,6.30
2007,05,28,05,16,6.20
2007,05,28,05,17,6.20
2007,05,28,05,18,6.20
2007,05,28,05,19,6.30
2007,05,28,05,20,6.30
2007,05,28,05,21,6.30
2007,05,28,05,22,6.30
2007,05,28,05,23,6.30
2007,05,28,05,24,6.30
2007,05,28,05,25,6.30
2007,05,28,05,26,6.30
2007,05,28,05,27,6.30
2007,05,28,05,28,6.30
2007,05,28,05,29,6.30
2007,05,28,05,30,6.30
2007,05,28,05,31,6.30
2007,05,28,05,32,6.30
2007,05,28,05,33,6.30
2007,05,28,05,34,6.30
2007,05,28,05,35,6.30
2007,05,28,05,36,6.30
2007,05,28,05,37,6.30
2007,05,28,05,38,6.30
2007,05,28,05,39,6.30
2007,05,28,05,40,6.30
2007,05,28,05,41,6.40
2007,05,28,05,42,6.40
2007,05,28,05,43,6.40
2007,05,28,05,44,6.40
2007,05,28,05,45,6.40
2007,05,28,05,46,6.40
2007,05,28,05,47,6.40
2007,05,28,05,48,6.50
2007,05,28,05,49,6.60
2007,05,28,05,50,6.60
2007,05,28,05,51,6.60
2007,05,28,05,52,6.60
2007,05,28,05,53,6.60
2007,05,28,05,54,6.60
2007,05,28,05,55,6.60
2007,05,28,05,56,6.60
2007,05,28,05,57,6.60
2007,05,28,05,58,6.60
2007,05,28,05,59,6.60
2007,05,28,06,00,6.60
2007,05,28,06,01,6.60
2007,05,28,06,02,6.60
2007,05,28,06,03,6.60
2007,05,28,06,04,6.60
2007,05,28,06,05,6.60
2007,05,28,06,06,6.60
2007,05,28,06,07,6.60
2007,05,28,06,08,6.60
2007,05,28,06,09,6.60
2007,05,28,06,10,6.60
2007,05,28,06,11,6.60
2007,05,28,06,12,6.60
2007,05,28,06,13,6.60
2007,05,28,06,14,6.60
2007,05,28,06,15,6.60
2007,05,28,06,16,6.60
2007,05,28,06,17,6.60
2007,05,28,06,18,6.70
2007,05,28,06,19,6.70
2007,05,28,06,20,6.70
2007,05,28,06,21,6.70
2007,05,28,06,22,6.70
2007,05,28,06,23,6.80
2007,05,28,06,24,6.80
2007,05,28,06,25,6.80
2007,05,28,06,26,6.80
2007,05,28,06,27,6.80
2007,05,28,06,28,6.80
2007,05,28,06,29,6.80
2007,05,28,06,30,6.80
2007,05,28,06,31,6.80
2007,05,28,06,32,6.80
2007,05,28,06,33,6.80
2007,05,28,06,34,6.80
2007,05,28,06,35,6.80
2007,05,28,06,36,6.80
2007,05,28,06,37,6.90
2007,05,28,06,38,6.90
2007,05,28,06,39,6.90
2007,05,28,06,40,6.90
2007,05,28,06,41,7.00
2007,05,28,06,42,7.00
2007,05,28,06,43,7.00
2007,05,28,06,44,7.00
2007,05,28,06,45,7.10
2007,05,28,06,46,7.10
2007,05,28,06,47,7.10
2007,05,28,06,48,7.20
2007,05,28,06,49,7.20
2007,05,28,06,50,7.30
2007,05,28,06,51,7.30
2007,05,28,06,52,7.40
2007,05,28,06,53,7.50
2007,05,28,06,54,7.60
2007,05,28,06,55,7.60
2007,05,28,06,56,7.80
2007,05,28,06,57,7.80
2007,05,28,06,58,7.90
2007,05,28,06,59,8.00
2007,05,28,07,00,8.00
2007,05,28,07,01,8.10
2007,05,28,07,02,8.10
2007,05,28,07,03,8.20
2007,05,28,07,04,8.20
2007,05,28,07,05,8.30
2007,05,28,07,06,8.30
2007,05,28,07,07,8.40
2007,05,28,07,08,8.50
2007,05,28,07,09,8.50
2007,05,28,07,10,8.60
2007,05,28,07,11,8.70
2007,05,28,07,12,8.70
2007,05,28,07,13,8.70
2007,05,28,07,14,8.80
2007,05,28,07,15,8.80
2007,05,28,07,16,8.90
2007,05,28,07,17,9.00
2007,05,28,07,18,9.10
2007,05,28,07,19,9.20
2007,05,28,07,20,9.30
2007,05,28,07,21,9.40
2007,05,28,07,22,9.50
2007,05,28,07,23,9.50
2007,05,28,07,24,9.70
2007,05,28,07,25,9.80
2007,05,28,07,26,9.90
2007,05,28,07,27,10.00
2007,05,28,07,28,10.10
2007,05,28,07,29,10.10
2007,05,28,07,30,10.20
2007,05,28,07,31,10.30
2007,05,28,07,32,10.30
2007,05,28,07,33,10.40
2007,05,28,07,34,10.40
2007,05,28,07,35,10.40
2007,05,28,07,36,10.40
2007,05,28,07,37,10.40
2007,05,28,07,38,10.60
2007,05,28,07,39,10.60
2007,05,28,07,40,10.60
2007,05,28,07,41,10.60
2007,05,28,07,42,10.60
2007,05,28,07,43,10.70
2007,05,28,07,44,10.70
2007,05,28,07,45,10.70
2007,05,28,07,46,10.80
2007,05,28,07,47,10.80
2007,05,28,07,48,10.90
2007,05,28,07,49,10.90
2007,05,28,07,50,10.90
2007,05,28,07,51,10.90
2007,05,28,07,52,10.90
2007,05,28,07,53,10.90
2007,05,28,07,54,10.90
2007,05,28,07,55,10.90
2007,05,28,07,56,11.00
2007,05,28,07,57,11.10
2007,05,28,07,58,11.10
2007,05,28,07,59,11.10
2007,05,28,08,00,11.10
2007,05,28,08,01,11.20
2007,05,28,08,02,11.20
2007,05,28,08,03,11.20
2007,05,28,08,04,11.20
2007,05,28,08,05,11.20
2007,05,28,08,06,11.20
2007,05,28,08,07,11.20
2007,05,28,08,08,11.30
2007,05,28,08,09,11.30
2007,05,28,08,10,11.30
2007,05,28,08,11,11.20
2007,05,28,08,12,11.20
2007,05,28,08,13,11.20
2007,05,28,08,14,11.20
2007,05,28,08,15,11.20
2007,05,28,08,16,11.20
2007,05,28,08,17,11.20
2007,05,28,08,18,11.30
2007,05,28,08,19,11.30
2007,05,28,08,20,11.30
2007,05,28,08,21,11.30
2007,05,28,08,22,11.30
2007,05,28,08,23,11.30
2007,05,28,08,24,11.40
2007,05,28,08,25,11.40
2007,05,28,08,26,11.40
2007,05,28,08,27,11.40
2007,05,28,08,28,11.40
2007,05,28,08,29,11.50
2007,05,28,08,30,11.60
2007,05,28,08,31,11.60
2007,05,28,08,32,11.60
2007,05,28,08,33,11.60
2007,05,28,08,34,11.60
2007,05,28,08,35,11.60
2007,05,28,08,36,11.60
2007,05,28,08,37,11.60
2007,05,28,08,38,11.60
2007,05,28,08,39,11.60
2007,05,28,08,40,11.60
2007,05,28,08,41,11.50
2007,05,28,08,42,11.40
2007,05,28,08,43,11.40
2007,05,28,08,44,11.40
2007,05,28,08,45,11.40
2007,05,28,08,46,11.40
2007,05,28,08,47,11.40
2007,05,28,08,48,11.40
2007,05,28,08,49,11.40
2007,05,28,08,50,11.40
2007,05,28,08,51,11.40
2007,05,28,08,52,11.40
2007,05,28,08,53,11.40
2007,05,28,08,54,11.40
2007,05,28,08,55,11.40
2007,05,28,08,56,11.40
2007,05,28,08,57,11.40
2007,05,28,08,58,11.40
2007,05,28,08,59,11.60
2007,05,28,09,00,11.60
2007,05,28,09,01,11.60
2007,05,28,09,02,11.60
2007,05,28,09,03,11.60
2007,05,28,09,04,11.60
2007,05,28,09,05,11.60
2007,05,28,09,06,11.60
2007,05,28,09,07,11.60
2007,05,28,09,08,11.60
2007,05,28,09,09,11.70
2007,05,28,09,10,11.70
2007,05,28,09,11,11.70
2007,05,28,09,12,11.70
2007,05,28,09,13,11.70
2007,05,28,09,14,11.70
2007,05,28,09,15,11.80
2007,05,28,09,16,11.80
2007,05,28,09,17,11.80
2007,05,28,09,18,11.80
2007,05,28,09,19,11.80
2007,05,28,09,20,11.80
2007,05,28,09,21,11.80
2007,05,28,09,22,11.80
2007,05,28,09,23,11.80
2007,05,28,09,24,11.80
2007,05,28,09,25,11.80
2007,05,28,09,26,11.90
2007,05,28,09,27,11.90
2007,05,28,09,28,11.90
2007,05,28,09,29,11.90
2007,05,28,09,30,11.90
2007,05,28,09,31,11.90
2007,05,28,09,32,12.00
2007,05,28,09,33,12.10
2007,05,28,09,34,12.10
2007,05,28,09,35,12.20
2007,05,28,09,36,12.30
2007,05,28,09,37,12.30
2007,05,28,09,38,12.40
2007,05,28,09,39,12.40
2007,05,28,09,40,12.40
2007,05,28,09,41,12.40
2007,05,28,09,42,12.40
2007,05,28,09,43,12.40
2007,05,28,09,44,12.40
2007,05,28,09,45,12.50
2007,05,28,09,46,12.50
2007,05,28,09,47,12.50
2007,05,28,09,48,12.50
2007,05,28,09,49,12.40
2007,05,28,09,50,12.30
2007,05,28,09,51,12.30
2007,05,28,09,52,12.20
2007,05,28,09,53,12.20
2007,05,28,09,54,12.30
2007,05,28,09,55,12.30
2007,05,28,09,56,12.40
2007,05,28,09,57,12.40
2007,05,28,09,58,12.50
2007,05,28,09,59,12.60
2007,05,28,10,00,12.60
2007,05,28,10,01,12.70
2007,05,28,10,02,12.70
2007,05,28,10,03,12.70
2007,05,28,10,04,12.80
2007,05,28,10,05,12.70
2007,05,28,10,06,12.70
2007,05,28,10,07,12.80
2007,05,28,10,08,12.80
2007,05,28,10,09,12.80
2007,05,28,10,10,12.80
2007,05,28,10,11,12.70
2007,05,28,10,12,12.70
2007,05,28,10,13,12.70
2007,05,28,10,14,12.70
2007,05,28,10,15,12.80
2007,05,28,10,16,12.80
2007,05,28,10,17,12.80
2007,05,28,10,18,12.80
2007,05,28,10,19,12.80
2007,05,28,10,20,12.80
2007,05,28,10,21,12.90
2007,05,28,10,22,13.00
2007,05,28,10,23,13.00
2007,05,28,10,24,13.10
2007,05,28,10,25,13.10
2007,05,28,10,26,13.20
2007,05,28,10,27,13.20
2007,05,28,10,28,13.30
2007,05,28,10,29,13.30
2007,05,28,10,30,13.30
2007,05,28,10,31,13.30
2007,05,28,10,32,13.30
2007,05,28,10,33,13.30
2007,05,28,10,34,13.30
2007,05,28,10,35,13.30
2007,05,28,10,36,13.30
2007,05,28,10,37,13.30
2007,05,28,10,38,13.30
2007,05,28,10,39,13.30
2007,05,28,10,40,13.40
2007,05,28,10,41,13.40
2007,05,28,10,42,13.30
2007,05,28,10,43,13.30
2007,05,28,10,44,13.30
2007,05,28,10,45,13.40
2007,05,28,10,46,13.50
2007,05,28,10,47,13.60
2007,05,28,10,48,13.60
2007,05,28,10,49,13.70
2007,05,28,10,50,13.70
2007,05,28,10,51,13.70
2007,05,28,10,52,13.60
2007,05,28,10,53,13.50
2007,05,28,10,54,13.50
2007,05,28,10,55,13.50
2007,05,28,10,56,13.60
2007,05,28,10,57,13.60
2007,05,28,10,58,13.60
2007,05,28,10,59,13.70
2007,05,28,11,00,13.70
2007,05,28,11,01,13.70
2007,05,28,11,02,13.70
2007,05,28,11,03,13.70
2007,05,28,11,04,13.70
2007,05,28,11,05,13.70
2007,05,28,11,06,13.80
2007,05,28,11,07,13.80
2007,05,28,11,08,13.80
2007,05,28,11,09,13.90
2007,05,28,11,10,14.00
2007,05,28,11,11,14.00
2007,05,28,11,12,14.10
2007,05,28,11,13,14.20
2007,05,28,11,14,14.20
2007,05,28,11,15,14.30
2007,05,28,11,16,14.30
2007,05,28,11,17,14.40
2007,05,28,11,18,14.50
2007,05,28,11,19,14.60
2007,05,28,11,20,14.60
2007,05,28,11,21,14.60
2007,05,28,11,22,14.60
2007,05,28,11,23,14.70
2007,05,28,11,24,14.70
2007,05,28,11,25,14.80
2007,05,28,11,26,14.80
2007,05,28,11,27,14.80
2007,05,28,11,28,14.80
2007,05,28,11,29,14.80
2007,05,28,11,30,14.80
2007,05,28,11,31,14.80
2007,05,28,11,32,14.80
2007,05,28,11,33,14.80
2007,05,28,11,34,14.80
2007,05,28,11,35,14.70
2007,05,28,11,36,14.60
2007,05,28,11,37,14.70
2007,05,28,11,38,14.80
2007,05,28,11,39,14.80
2007,05,28,11,40,14.80
2007,05,28,11,41,14.90
2007,05,28,11,42,14.90
2007,05,28,11,43,15.00
2007,05,28,11,44,15.10
2007,05,28,11,45,15.10
2007,05,28,11,46,15.20
2007,05,28,11,47,15.30
2007,05,28,11,48,15.40
2007,05,28,11,49,15.40
2007,05,28,11,50,15.40
2007,05,28,11,51,15.50
2007,05,28,11,52,15.60
2007,05,28,11,53,15.60
2007,05,28,11,54,15.50
2007,05,28,11,55,15.50
2007,05,28,11,56,15.40
2007,05,28,11,57,15.40
2007,05,28,11,58,15.30
2007,05,28,11,59,15.30
2007,05,28,12,00,15.30
2007,05,28,12,01,15.40
2007,05,28,12,02,15.50
2007,05,28,12,03,15.50
2007,05,28,12,04,15.50
2007,05,28,12,05,15.50
2007,05,28,12,06,15.60
2007,05,28,12,07,15.50
2007,05,28,12,08,15.50
2007,05,28,12,09,15.60
2007,05,28,12,10,15.70
2007,05,28,12,11,15.70
2007,05,28,12,12,15.70
2007,05,28,12,13,15.80
2007,05,28,12,14,15.80
2007,05,28,12,15,15.80
2007,05,28,12,16,15.90
2007,05,28,12,17,16.00
2007,05,28,12,18,16.20
2007,05,28,12,19,16.30
2007,05,28,12,20,16.40
2007,05,28,12,21,16.30
2007,05,28,12,22,16.10
2007,05,28,12,23,16.00
2007,05,28,12,24,15.90
2007,05,28,12,25,16.00
2007,05,28,12,26,16.10
2007,05,28,12,27,16.10
2007,05,28,12,28,16.10
2007,05,28,12,29,16.10
2007,05,28,12,30,16.00
2007,05,28,12,31,15.90
2007,05,28,12,32,15.80
2007,05,28,12,33,15.80
2007,05,28,12,34,15.80
2007,05,28,12,35,15.80
2007,05,28,12,36,15.90
2007,05,28,12,37,15.90
2007,05,28,12,38,15.90
2007,05,28,12,39,15.90
2007,05,28,12,40,15.90
2007,05,28,12,41,16.00
2007,05,28,12,42,16.10
2007,05,28,12,43,16.10
2007,05,28,12,44,16.10
2007,05,28,12,45,16.10
2007,05,28,12,46,16.20
2007,05,28,12,47,16.20
2007,05,28,12,48,16.10
2007,05,28,12,49,16.10
2007,05,28,12,50,15.90
2007,05,28,12,51,15.80
2007,05,28,12,52,15.60
2007,05,28,12,53,15.50
2007,05,28,12,54,15.50
2007,05,28,12,55,15.40
2007,05,28,12,56,15.30
2007,05,28,12,57,15.20
2007,05,28,12,58,15.30
2007,05,28,12,59,15.20
2007,05,28,13,00,15.10
2007,05,28,13,01,15.10
2007,05,28,13,02,15.20
2007,05,28,13,03,15.40
2007,05,28,13,04,15.50
2007,05,28,13,05,15.60
2007,05,28,13,06,15.70
2007,05,28,13,07,15.80
2007,05,28,13,08,15.80
2007,05,28,13,09,15.90
2007,05,28,13,10,16.00
2007,05,28,13,11,16.20
2007,05,28,13,12,16.20
2007,05,28,13,13,16.30
2007,05,28,13,14,16.30
2007,05,28,13,15,16.30
2007,05,28,13,16,16.20
2007,05,28,13,17,16.00
2007,05,28,13,18,15.90
2007,05,28,13,19,15.80
2007,05,28,13,20,15.80
2007,05,28,13,21,15.80
2007,05,28,13,22,15.60
2007,05,28,13,23,15.50
2007,05,28,13,24,15.50
2007,05,28,13,25,15.50
2007,05,28,13,26,15.40
2007,05,28,13,27,15.50
2007,05,28,13,28,15.60
2007,05,28,13,29,15.70
2007,05,28,13,30,15.80
2007,05,28,13,31,16.00
2007,05,28,13,32,16.10
2007,05,28,13,33,16.20
2007,05,28,13,34,16.30
2007,05,28,13,35,16.40
2007,05,28,13,36,16.40
2007,05,28,13,37,16.40
2007,05,28,13,38,16.40
2007,05,28,13,39,16.40
2007,05,28,13,40,16.40
2007,05,28,13,41,16.40
2007,05,28,13,42,16.40
2007,05,28,13,43,16.40
2007,05,28,13,44,16.40
2007,05,28,13,45,16.40
2007,05,28,13,46,16.40
2007,05,28,13,47,16.50
2007,05,28,13,48,16.50
2007,05,28,13,49,16.50
2007,05,28,13,50,16.50
2007,05,28,13,51,16.50
2007,05,28,13,52,16.60
2007,05,28,13,53,16.70
2007,05,28,13,54,16.80
2007,05,28,13,55,16.90
2007,05,28,13,56,17.10
2007,05,28,13,57,17.20
2007,05,28,13,58,17.30
2007,05,28,13,59,17.30
2007,05,28,14,00,17.50
2007,05,28,14,01,17.60
2007,05,28,14,02,17.80
2007,05,28,14,03,17.90
2007,05,28,14,04,18.00
2007,05,28,14,05,18.20
2007,05,28,14,06,18.20
2007,05,28,14,07,18.20
2007,05,28,14,08,18.10
2007,05,28,14,09,18.10
2007,05,28,14,10,18.10
2007,05,28,14,11,18.10
2007,05,28,14,12,18.00
2007,05,28,14,13,17.90
2007,05,28,14,14,17.90
2007,05,28,14,15,17.80
2007,05,28,14,16,17.60
2007,05,28,14,17,17.50
2007,05,28,14,18,17.30
2007,05,28,14,19,17.40
2007,05,28,14,20,17.50
2007,05,28,14,21,17.60
2007,05,28,14,22,17.70
2007,05,28,14,23,17.80
2007,05,28,14,24,17.80
2007,05,28,14,25,17.90
2007,05,28,14,26,17.90
2007,05,28,14,27,17.90
2007,05,28,14,28,17.90
2007,05,28,14,29,18.00
2007,05,28,14,30,18.10
2007,05,28,14,31,18.10
2007,05,28,14,32,18.10
2007,05,28,14,33,18.20
2007,05,28,14,34,18.30
2007,05,28,14,35,18.50
2007,05,28,14,36,18.60
2007,05,28,14,37,18.70
2007,05,28,14,38,18.90
2007,05,28,14,39,19.00
2007,05,28,14,40,19.10
2007,05,28,14,41,19.10
2007,05,28,14,42,19.10
2007,05,28,14,43,19.10
2007,05,28,14,44,19.10
2007,05,28,14,45,19.10
2007,05,28,14,46,19.10
2007,05,28,14,47,19.10
2007,05,28,14,48,18.90
2007,05,28,14,49,19.10
2007,05,28,14,50,19.10
2007,05,28,14,51,19.10
2007,05,28,14,52,19.10
2007,05,28,14,53,19.20
2007,05,28,14,54,19.30
2007,05,28,14,55,19.30
2007,05,28,14,56,19.20
2007,05,28,14,57,19.10
2007,05,28,14,58,19.10
2007,05,28,14,59,19.20
2007,05,28,15,00,19.10
2007,05,28,15,01,19.10
2007,05,28,15,02,19.10
2007,05,28,15,03,19.20
2007,05,28,15,04,19.20
2007,05,28,15,05,19.20
2007,05,28,15,06,19.20
2007,05,28,15,07,19.30
2007,05,28,15,08,19.40
2007,05,28,15,09,19.30
2007,05,28,15,10,19.40
2007,05,28,15,11,19.40
2007,05,28,15,12,19.40
2007,05,28,15,13,19.50
2007,05,28,15,14,19.50
2007,05,28,15,15,19.60
2007,05,28,15,16,19.50
2007,05,28,15,17,19.60
2007,05,28,15,18,19.70
2007,05,28,15,19,19.70
2007,05,28,15,20,19.80
2007,05,28,15,21,19.90
2007,05,28,15,22,19.90
2007,05,28,15,23,20.00
2007,05,28,15,24,20.10
2007,05,28,15,25,20.10
2007,05,28,15,26,20.10
2007,05,28,15,27,20.20
2007,05,28,15,28,20.10
2007,05,28,15,29,19.90
2007,05,28,15,30,19.90
2007,05,28,15,31,19.90
2007,05,28,15,32,20.00
2007,05,28,15,33,20.10
2007,05,28,15,34,20.10
2007,05,28,15,35,19.90
2007,05,28,15,36,19.90
2007,05,28,15,37,19.90
2007,05,28,15,38,19.90
2007,05,28,15,39,19.90
2007,05,28,15,40,20.00
2007,05,28,15,41,20.00
2007,05,28,15,42,19.90
2007,05,28,15,43,19.90
2007,05,28,15,44,19.70
2007,05,28,15,45,19.60
2007,05,28,15,46,19.50
2007,05,28,15,47,19.40
2007,05,28,15,48,19.20
2007,05,28,15,49,19.00
2007,05,28,15,50,18.90
2007,05,28,15,51,18.90
2007,05,28,15,52,18.90
2007,05,28,15,53,18.90
2007,05,28,15,54,19.00
2007,05,28,15,55,19.10
2007,05,28,15,56,19.00
2007,05,28,15,57,18.90
2007,05,28,15,58,18.90
2007,05,28,15,59,18.90
2007,05,28,16,00,18.80
2007,05,28,16,01,18.80
2007,05,28,16,02,18.90
2007,05,28,16,03,18.90
2007,05,28,16,04,19.00
2007,05,28,16,05,19.10
2007,05,28,16,06,19.30
2007,05,28,16,07,19.40
2007,05,28,16,08,19.60
2007,05,28,16,09,19.70
2007,05,28,16,10,19.60
2007,05,28,16,11,19.70
2007,05,28,16,12,19.80
2007,05,28,16,13,19.80
2007,05,28,16,14,19.60
2007,05,28,16,15,19.50
2007,05,28,16,16,19.50
2007,05,28,16,17,19.40
2007,05,28,16,18,19.30
2007,05,28,16,19,19.20
2007,05,28,16,20,19.10
2007,05,28,16,21,18.90
2007,05,28,16,22,18.90
2007,05,28,16,23,18.90
2007,05,28,16,24,19.00
2007,05,28,16,25,19.00
2007,05,28,16,26,18.90
2007,05,28,16,27,18.80
2007,05,28,16,28,18.70
2007,05,28,16,29,18.70
2007,05,28,16,30,18.70
2007,05,28,16,31,18.70
2007,05,28,16,32,18.70
2007,05,28,16,33,18.70
2007,05,28,16,34,18.70
2007,05,28,16,35,18.60
2007,05,28,16,36,18.60
2007,05,28,16,37,18.50
2007,05,28,16,38,18.40
2007,05,28,16,39,18.30
2007,05,28,16,40,18.30
2007,05,28,16,41,18.30
2007,05,28,16,42,18.20
2007,05,28,16,43,18.20
2007,05,28,16,44,18.20
2007,05,28,16,45,18.20
2007,05,28,16,46,18.20
2007,05,28,16,47,18.30
2007,05,28,16,48,18.40
2007,05,28,16,49,18.50
2007,05,28,16,50,18.60
2007,05,28,16,51,18.70
2007,05,28,16,52,18.80
2007,05,28,16,53,18.80
2007,05,28,16,54,18.90
2007,05,28,16,55,18.80
2007,05,28,16,56,18.60
2007,05,28,16,57,18.50
2007,05,28,16,58,18.40
2007,05,28,16,59,18.50
2007,05,28,17,00,18.50
2007,05,28,17,01,18.50
2007,05,28,17,02,18.60
2007,05,28,17,03,18.60
2007,05,28,17,04,18.60
2007,05,28,17,05,18.60
2007,05,28,17,06,18.50
2007,05,28,17,07,18.50
2007,05,28,17,08,18.50
2007,05,28,17,09,18.50
2007,05,28,17,10,18.50
2007,05,28,17,11,18.60
2007,05,28,17,12,18.70
2007,05,28,17,13,18.80
2007,05,28,17,14,18.80
2007,05,28,17,15,18.90
2007,05,28,17,16,18.90
2007,05,28,17,17,18.90
2007,05,28,17,18,18.90
2007,05,28,17,19,18.90
2007,05,28,17,20,18.90
2007,05,28,17,21,18.80
2007,05,28,17,22,18.90
2007,05,28,17,23,18.90
2007,05,28,17,24,19.00
2007,05,28,17,25,19.10
2007,05,28,17,26,19.10
2007,05,28,17,27,19.20
2007,05,28,17,28,19.20
2007,05,28,17,29,19.20
2007,05,28,17,30,19.20
2007,05,28,17,31,19.10
2007,05,28,17,32,19.10
2007,05,28,17,33,19.10
2007,05,28,17,34,19.10
2007,05,28,17,35,19.10
2007,05,28,17,36,19.10
2007,05,28,17,37,19.10
2007,05,28,17,38,19.10